Simultaneous Nadir Overpasses (SNOs) Predictions

Prediction of SNOs between GOES-15 and METOP-B Satellite Orbit:

Table of predicted SNOs for the next 14.0 days since TLE Epoch: 4/19/2019
Index Date Time (GOES-15) GOES-15 Lat,Lon METOP-B Lat,Lon Distance(km) Time Diff (sec)
1 04/20/2019 05:51:57 0.06,-127.71 0.40,-126.04 190.04 80
2 04/21/2019 18:10:51 -0.06,-127.80 0.54,-130.62 320.65 80
3 04/22/2019 17:52:51 -0.07,-127.83 -0.55,-125.62 252.42 80
4 04/24/2019 06:11:52 0.08,-127.86 -0.48,-130.21 268.69 80
5 04/25/2019 05:48:34 0.08,-127.90 0.67,-125.23 303.98 80
6 04/26/2019 18:07:26 -0.08,-127.97 0.32,-129.79 207.50 80
7 04/27/2019 17:49:28 -0.08,-128.01 -0.82,-124.81 365.16 80
8 04/29/2019 06:08:29 0.09,-128.03 -0.20,-129.40 156.28 80
9 04/30/2019 05:45:10 0.09,-128.06 0.89,-124.41 416.10 80
10 05/01/2019 18:04:02 -0.09,-128.13 0.10,-128.97 95.95 80
11 05/02/2019 17:46:04 -0.09,-128.16 -1.05,-123.98 476.34 80




NCC Satellite Simultaneous Nadir Overpasses (SNOs) Prediction Service
